Home   Weather   Durban   Past weeks

Flag for South Africa Past Weather in Durban, South Africa — Yesterday and Last 2 Weeks

Now
79 °F

Scattered clouds.


Feels Like: 81 °F
Forecast: 68 / 72 °F
Wind: 14 mph from Southeast

Location: King Shaka International Airport

Current Time: Jan 20, 2017 at 12:03:16 pm

Latest Report: Jan 20, 2017 at 11:00 am


Visibility: N/A

Pressure: 29.83 "Hg

Humidity: 65%

Dew Point: 66 °F

Location of DurbanLocation

Past Weather in Durban — Graph

°F

Durban Temperature Yesterday

Maximum temperature yesterday: 82 °F (at 10:11 am)
Minimum temperature yesterday: 61 °F (at 4:00 am)
Average temperature yesterday: 73 °F

High & Low Weather Summary for the Past Weeks

 TemperatureHumidityPressure
High86 °F (Jan 12, 12:00 pm)89% (Jan 15, 9:00 pm)30.24 "Hg (Jan 15, 9:00 pm)
Low61 °F (Jan 9, 4:00 am)50% (Jan 17, 11:00 am)29.71 "Hg (Jan 15, 5:00 pm)
Average73 °F74%29.95 "Hg
* Reported Jan 5 10:00 am — Jan 20 10:00 am, Durban, Weather by CustomWeather, © 2017

Note: Actual official high and low records may vary slightly from our data, if they occured in-between our weather recording intervals... More about our weather records

Advertising

Durban Weather History for the Previous 24 Hours

Scroll right to see more
 ConditionsComfort  
Time TempWeatherWind HumidityBarometerVisibility
10:00 am
Fri, Jan 20
79 °FScattered clouds.13 mph61%29.83 "HgN/A
9:00 am79 °FPartly sunny.8 mph65%29.83 "HgN/A
8:29 am79 °FScattered clouds.12 mph65%29.83 "HgN/A
7:00 am73 °FPassing clouds.8 mph69%29.83 "HgN/A
6:21 am72 °FPassing clouds.8 mph73%29.83 "HgN/A
6:00 am68 °FPassing clouds.5 mph78%29.83 "HgN/A
5:00 am68 °FClear.7 mph73%29.80 "Hg10 mi
4:00 am66 °FClear.2 mph78%29.80 "Hg10 mi
3:00 am66 °FPassing clouds.3 mph83%29.80 "HgN/A
2:00 am66 °FClear.2 mph83%29.86 "Hg10 mi
1:00 am70 °FClear.6 mph73%29.89 "Hg10 mi
12:00 am70 °FClear.3 mph73%29.92 "Hg10 mi
11:00 pm
Thu, Jan 19
72 °FPassing clouds.7 mph73%29.92 "HgN/A
10:00 pm73 °FPartly cloudy.10 mph74%29.92 "HgN/A
9:00 pm73 °FPartly cloudy.6 mph78%29.89 "HgN/A
8:00 pm73 °FPassing clouds.7 mph78%29.86 "HgN/A
7:00 pm73 °FPassing clouds.7 mph78%29.83 "Hg5 mi
6:00 pm77 °FScattered clouds.9 mph74%29.83 "HgN/A
5:00 pm79 °FPassing clouds.7 mph70%29.80 "HgN/A
4:00 pm79 °FPassing clouds.8 mph70%29.80 "HgN/A
3:00 pm81 °FPassing clouds.8 mph66%29.80 "HgN/A
2:00 pm81 °FPassing clouds.10 mph66%29.80 "HgN/A
1:00 pm81 °FPassing clouds.12 mph62%29.80 "HgN/A
12:00 pm82 °FSunny.13 mph58%29.80 "Hg10 mi
Weather by CustomWeather, © 2017

See weather overviewHow to use our weather pages